• In Czech Republic
  • List of Countries
  • For 7 days
  • Water Temperature
  • Satellite Maps
  • Weather Map
  • Weather Widgets
  • user-avatar
    Login

    Hourly Weather Jalalabad

    Today, 23 October, Tuesday

    Time Temperature Precipitation Wind Pressure Humidity
    00:00 +20°C° 0 mm 1 mps 710 mmHg 30%
    01:00 +19°C° 0 mm 1 mps 710 mmHg 30%
    02:00 +19°C° 0 mm 1 mps 710 mmHg 31%
    03:00 +18°C° 0 mm 1 mps 710 mmHg 30%
    04:00 +18°C° 0 mm 1 mps 710 mmHg 30%
    05:00 +18°C° 0 mm 1 mps 710 mmHg 30%
    06:00 +19°C° 0 mm 1 mps 710 mmHg 27%
    07:00 +20°C° 0 mm 1 mps 711 mmHg 24%
    08:00 +21°C° 0 mm 1 mps 711 mmHg 22%
    09:00 +22°C° 0 mm 1 mps 711 mmHg 20%
    10:00 +24°C° 0 mm 1 mps 711 mmHg 18%
    11:00 +25°C° 0 mm 1 mps 711 mmHg 16%
    12:00 +25°C° 0 mm 1 mps 711 mmHg 16%
    13:00 +26°C° 0 mm 2 mps 710 mmHg 15%
    14:00 +27°C° 0 mm 2 mps 710 mmHg 15%
    15:00 +26°C° 0 mm 2 mps 710 mmHg 16%
    16:00 +26°C° 0 mm 1 mps 710 mmHg 17%
    17:00 +25°C° 0 mm 1 mps 710 mmHg 18%
    18:00 +24°C° 0 mm 1 mps 710 mmHg 21%
    19:00 +22°C° 0 mm 1 mps 710 mmHg 24%
    20:00 +19°C° 0 mm 0 mps 711 mmHg 27%
    21:00 +20°C° 0 mm 1 mps 711 mmHg 27%
    22:00 +20°C° 0 mm 1 mps 711 mmHg 27%
    23:00 +20°C° 0 mm 1 mps 711 mmHg 28%

    Tomorrow, 24 October, Wednesday

    Time Temperature Precipitation Wind Pressure Humidity
    00:00 +19°C° 0 mm 1 mps 710 mmHg 28%
    01:00 +19°C° 0 mm 1 mps 710 mmHg 29%
    02:00 +18°C° 0 mm 1 mps 710 mmHg 30%
    03:00 +18°C° 0 mm 1 mps 710 mmHg 30%
    04:00 +18°C° 0 mm 1 mps 710 mmHg 30%
    05:00 +16°C° 0 mm 1 mps 709 mmHg 30%
    06:00 +18°C° 0 mm 1 mps 710 mmHg 27%
    07:00 +20°C° 0 mm 1 mps 710 mmHg 25%
    08:00 +21°C° 0 mm 1 mps 711 mmHg 22%
    09:00 +22°C° 0 mm 1 mps 711 mmHg 21%
    10:00 +23°C° 0 mm 1 mps 711 mmHg 19%
    11:00 +25°C° 0 mm 1 mps 711 mmHg 18%
    12:00 +25°C° 0 mm 1 mps 711 mmHg 18%
    13:00 +26°C° 0 mm 2 mps 711 mmHg 18%
    14:00 +26°C° 0 mm 2 mps 710 mmHg 18%
    15:00 +26°C° 0 mm 2 mps 710 mmHg 19%
    16:00 +25°C° 0 mm 2 mps 710 mmHg 20%
    17:00 +25°C° 0 mm 1 mps 710 mmHg 22%
    18:00 +23°C° 0 mm 1 mps 711 mmHg 24%
    19:00 +22°C° 0 mm 1 mps 711 mmHg 26%
    20:00 +21°C° 0 mm 1 mps 711 mmHg 28%
    21:00 +20°C° 0 mm 1 mps 711 mmHg 28%
    22:00 +20°C° 0 mm 1 mps 712 mmHg 29%
    23:00 +20°C° 0 mm 1 mps 712 mmHg 29%

    Day after tomorrow, 25 October, Thursday

    Time Temperature Precipitation Wind Pressure Humidity
    00:00 +19°C° 0 mm 1 mps 711 mmHg 30%
    01:00 +19°C° 0 mm 1 mps 711 mmHg 31%
    02:00 +19°C° 0 mm 1 mps 711 mmHg 31%
    03:00 +19°C° 0 mm 1 mps 711 mmHg 31%
    04:00 +18°C° 0 mm 1 mps 711 mmHg 32%
    05:00 +18°C° 0 mm 1 mps 711 mmHg 32%
    06:00 +19°C° 0 mm 1 mps 711 mmHg 30%
    07:00 +20°C° 0 mm 1 mps 712 mmHg 28%
    08:00 +21°C° 0 mm 1 mps 712 mmHg 26%
    09:00 +23°C° 0 mm 1 mps 712 mmHg 24%
    10:00 +24°C° 0 mm 1 mps 712 mmHg 22%
    11:00 +25°C° 0 mm 1 mps 712 mmHg 21%
    12:00 +26°C° 0 mm 1 mps 712 mmHg 21%
    13:00 +26°C° 0 mm 2 mps 711 mmHg 21%
    14:00 +27°C° 0 mm 2 mps 711 mmHg 21%
    15:00 +26°C° 0.1 mm 2 mps 711 mmHg 23%
    16:00 +26°C° 0.1 mm 2 mps 711 mmHg 24%
    17:00 +25°C° 0.1 mm 1 mps 711 mmHg 26%
    18:00 +24°C° 0.1 mm 1 mps 712 mmHg 29%
    19:00 +22°C° 0.1 mm 1 mps 712 mmHg 32%
    20:00 +21°C° 0.1 mm 1 mps 712 mmHg 35%
    21:00 +21°C° 0.1 mm 1 mps 713 mmHg 36%
    22:00 +20°C° 0.1 mm 1 mps 713 mmHg 36%
    23:00 +20°C° 0.1 mm 1 mps 713 mmHg 37%

    26 October, Friday

    Time Temperature Precipitation Wind Pressure Humidity
    00:00 +20°C° 0.1 mm 1 mps 713 mmHg 38%
    01:00 +19°C° 0.1 mm 1 mps 713 mmHg 39%
    02:00 +19°C° 0.1 mm 1 mps 713 mmHg 39%
    03:00 +19°C° 0 mm 1 mps 713 mmHg 39%
    04:00 +18°C° 0 mm 1 mps 713 mmHg 39%
    05:00 +18°C° 0 mm 1 mps 713 mmHg 39%
    06:00 +19°C° 0 mm 1 mps 713 mmHg 37%
    07:00 +20°C° 0 mm 1 mps 714 mmHg 34%
    08:00 +22°C° 0 mm 1 mps 714 mmHg 31%
    09:00 +23°C° 0 mm 1 mps 714 mmHg 30%
    10:00 +24°C° 0 mm 1 mps 714 mmHg 29%
    11:00 +26°C° 0 mm 1 mps 714 mmHg 28%
    12:00 +26°C° 0 mm 1 mps 713 mmHg 27%
    13:00 +27°C° 0 mm 2 mps 713 mmHg 26%
    14:00 +27°C° 0 mm 2 mps 712 mmHg 26%
    15:00 +27°C° 0 mm 2 mps 712 mmHg 26%
    16:00 +26°C° 0 mm 1 mps 712 mmHg 27%
    17:00 +26°C° 0 mm 1 mps 712 mmHg 27%
    18:00 +24°C° 0 mm 1 mps 712 mmHg 31%
    19:00 +23°C° 0 mm 1 mps 712 mmHg 34%
    20:00 +19°C° 0 mm 0 mps 713 mmHg 38%
    21:00 +19°C° 0 mm 0 mps 712 mmHg 38%
    22:00 +19°C° 0 mm 0 mps 712 mmHg 39%
    23:00 +18°C° 0 mm 0 mps 712 mmHg 40%

    27 October, Saturday

    Time Temperature Precipitation Wind Pressure Humidity
    00:00 +18°C° 0 mm 0 mps 712 mmHg 40%
    01:00 +18°C° 0 mm 0 mps 712 mmHg 40%
    02:00 +17°C° 0 mm 0 mps 712 mmHg 40%
    03:00 +17°C° 0 mm 0 mps 712 mmHg 40%
    04:00 +17°C° 0 mm 0 mps 712 mmHg 40%
    05:00 +17°C° 0 mm 0 mps 712 mmHg 39%
    06:00 +18°C° 0 mm 0 mps 712 mmHg 37%
    07:00 +19°C° 0 mm 0 mps 713 mmHg 34%
    08:00 +21°C° 0 mm 0 mps 713 mmHg 31%
    09:00 +24°C° 0 mm 1 mps 713 mmHg 29%
    10:00 +26°C° 0 mm 1 mps 713 mmHg 27%
    11:00 +27°C° 0 mm 1 mps 713 mmHg 24%
    12:00 +28°C° 0 mm 1 mps 713 mmHg 23%
    13:00 +28°C° 0 mm 2 mps 712 mmHg 22%
    14:00 +29°C° 0 mm 2 mps 711 mmHg 20%
    15:00 +28°C° 0 mm 2 mps 711 mmHg 22%
    16:00 +28°C° 0 mm 2 mps 711 mmHg 23%
    17:00 +27°C° 0 mm 1 mps 711 mmHg 25%
    18:00 +26°C° 0 mm 1 mps 712 mmHg 28%
    19:00 +24°C° 0 mm 1 mps 712 mmHg 31%
    20:00 +20°C° 0 mm 0 mps 713 mmHg 34%
    21:00 +20°C° 0 mm 0 mps 713 mmHg 35%
    22:00 +20°C° 0 mm 0 mps 713 mmHg 35%
    23:00 +19°C° 0 mm 0 mps 713 mmHg 36%

    28 October, Sunday

    Time Temperature Precipitation Wind Pressure Humidity
    00:00 +19°C° 0 mm 0 mps 712 mmHg 36%
    01:00 +18°C° 0 mm 0 mps 712 mmHg 36%
    02:00 +18°C° 0 mm 0 mps 712 mmHg 36%
    03:00 +18°C° 0 mm 0 mps 712 mmHg 36%
    04:00 +17°C° 0 mm 0 mps 711 mmHg 36%
    05:00 +17°C° 0 mm 0 mps 711 mmHg 37%
    06:00 +19°C° 0 mm 0 mps 712 mmHg 34%
    07:00 +22°C° 0 mm 1 mps 712 mmHg 32%
    08:00 +24°C° 0 mm 1 mps 713 mmHg 30%
    09:00 +25°C° 0 mm 1 mps 713 mmHg 27%
    10:00 +27°C° 0 mm 1 mps 713 mmHg 24%
    11:00 +28°C° 0 mm 1 mps 713 mmHg 21%
    12:00 +29°C° 0 mm 1 mps 712 mmHg 20%
    13:00 +29°C° 0 mm 1 mps 712 mmHg 20%
    14:00 +30°C° 0 mm 2 mps 711 mmHg 20%
    15:00 +29°C° 0 mm 1 mps 711 mmHg 22%
    16:00 +28°C° 0 mm 1 mps 711 mmHg 24%
    17:00 +28°C° 0 mm 1 mps 711 mmHg 26%
    18:00 +26°C° 0 mm 1 mps 712 mmHg 29%
    19:00 +25°C° 0 mm 1 mps 712 mmHg 32%
    20:00 +21°C° 0 mm 0 mps 712 mmHg 35%
    21:00 +21°C° 0 mm 0 mps 712 mmHg 36%
    22:00 +23°C° 0 mm 1 mps 712 mmHg 37%
    23:00 +22°C° 0 mm 1 mps 712 mmHg 37%

    29 October, Monday

    Time Temperature Precipitation Wind Pressure Humidity
    00:00 +22°C° 0 mm 1 mps 712 mmHg 38%
    01:00 +22°C° 0 mm 1 mps 712 mmHg 39%
    02:00 +21°C° 0 mm 1 mps 711 mmHg 40%
    03:00 +21°C° 0 mm 1 mps 711 mmHg 41%
    04:00 +21°C° 0 mm 1 mps 711 mmHg 41%
    05:00 +21°C° 0 mm 1 mps 711 mmHg 42%
    06:00 +22°C° 0 mm 1 mps 712 mmHg 40%
    07:00 +23°C° 0 mm 1 mps 712 mmHg 37%
    08:00 +24°C° 0 mm 1 mps 712 mmHg 35%
    09:00 +25°C° 0 mm 1 mps 712 mmHg 32%
    10:00 +27°C° 0 mm 1 mps 712 mmHg 30%
    11:00 +28°C° 0 mm 1 mps 712 mmHg 27%
    12:00 +28°C° 0 mm 1 mps 712 mmHg 26%
    13:00 +29°C° 0 mm 1 mps 712 mmHg 26%
    14:00 +29°C° 0 mm 2 mps 711 mmHg 25%
    15:00 +28°C° 0 mm 1 mps 711 mmHg 27%
    16:00 +28°C° 0 mm 1 mps 711 mmHg 29%
    17:00 +27°C° 0 mm 1 mps 711 mmHg 31%
    18:00 +26°C° 0.1 mm 1 mps 712 mmHg 33%
    19:00 +25°C° 0.1 mm 1 mps 712 mmHg 36%
    20:00 +22°C° 0.1 mm 0 mps 712 mmHg 39%
    21:00 +24°C° 0.1 mm 1 mps 712 mmHg 39%
    22:00 +24°C° 0.1 mm 1 mps 713 mmHg 39%
    23:00 +24°C° 0.1 mm 1 mps 713 mmHg 39%
    Show more